Regional Weather Roundup
Issued by NWS Upton, NY

Current Version | Previous Version | Graphics & Text | Print | Product List | Glossary Off
Versions: 1 2 3 4 5 6 7 8 9 10 11 12 13 14 15 16 17 18 19 20 21 22 23 24 25 26 27 28 29 30 31 32 33 34 35 36 37 38 39 40 41 42 43 44 45 46 47 48 49 50

000
ASUS41 KOKX 270608
RWROKX

REGIONAL WEATHER ROUNDUP
NATIONAL WEATHER SERVICE NEW YORK NY
200 AM EDT WED MAY 27 2015

NOTE: "FAIR" INDICATES FEW OR NO CLOUDS BELOW 12,000 FEET WITH NO
SIGNIFICANT WEATHER AND/OR OBSTRUCTIONS TO VISIBILITY.

NYZ071-072-176-178-NJZ106-104-270700-
NEW YORK CITY METRO AREA


CITY           SKY/WX    TMP DP  RH WIND       PRES   REMARKS
CENTRAL PARK   PTCLDY    72  60  66 VRB5      30.18F
LAGUARDIA APRT MOCLDY    73  60  63 SW10      30.15F
KENNEDY INTL   MOCLDY    62  56  80 S7        30.18S
NEWARK/LIBERTY CLOUDY    72  62  71 S12       30.16S
BRNX BOT. GARD   N/A     72  61  68 W13       30.15F
TETERBORO      PTCLDY    72  62  71 S10       30.14S
$$

NYZ177-179-078>081-270700-
LONG ISLAND NEW YORK

CITY           SKY/WX    TMP DP  RH WIND       PRES   REMARKS
FARMINGDALE    PTCLDY    65  60  84 SW8       30.18F
ISLIP          PTCLDY    65  59  81 SW14      30.18S
SHIRLEY        MOCLDY    65  59  81 SW12G21   30.20F
WESTHAMPTON    PTCLDY    63  59  87 SW12      30.22S
MONTAUK POINT    N/A     64  59  83 SW9G18    30.22S
$$

NYZ052-065-067-270700-
HUDSON VALLEY

CITY           SKY/WX    TMP DP  RH WIND       PRES   REMARKS
WHITE PLAINS   PTCLDY    64  60  87 CALM      30.16S
NEWBURGH       NOT AVBL
MONTGOMERY     FOG       64  64 100 CALM      30.13S VSB 1/4
POUGHKEEPSIE   CLEAR     66  63  90 CALM      30.12F
ALBANY         CLOUDY    74  63  68 S10       30.09F
$$

NJZ001-105-106-008-010-013-015-019>022-104-270700-
NEW JERSEY

CITY           SKY/WX    TMP DP  RH WIND       PRES   REMARKS
NEWARK/LIBERTY CLOUDY    72  62  71 S12       30.16S
TETERBORO      PTCLDY    72  62  71 S10       30.14S
CALDWELL       CLEAR     72  62  71 SW5       30.15F
MORRISTOWN     CLEAR     72  63  73 S3        30.16S
SOMERVILLE     CLEAR     68  63  84 CALM      30.14S
SUSSEX         CLEAR     69  62  78 SW3       30.15F
ANDOVER          N/A     70  64  81 CALM      30.15F
TRENTON        PTCLDY    70  63  78 S7        30.16F
MILLVILLE      MOCLDY    69  65  86 VRB5      30.18F
ATLANTIC CITY  CLEAR     67  61  81 S8        30.19S
WRIGHTSTOWN    PTCLDY    67  65  91 SW6       30.15F
TOMS RIVER     MOCLDY   N/A N/A N/A S8        30.18S
BELMAR         MOCLDY    70  59  68 SW8       30.18F
$$

PAZ047>061-062-071-270700-
EASTERN PENNSYLVANIA

CITY           SKY/WX    TMP DP  RH WIND       PRES   REMARKS
PHILADELPHIA   PTCLDY    71  64  78 S9        30.17F
ALLENTOWN      CLEAR     72  63  73 SW8       30.14F
SCRANTON       CLEAR     72  64  76 CALM      30.13S
$$

CTZ002-004>006-009-010-012-RIZ004-006-007-MAZ004-011-015-270700-
SOUTHERN NEW ENGLAND
 IN CT

CITY           SKY/WX    TMP DP  RH WIND       PRES   REMARKS
BRADLEY INTL   PTCLDY    66  59  78 S7        30.15S
HARTFORD       CLEAR     66  59  78 S7        30.16F
DANBURY        CLEAR     68  59  73 S6        30.17F
WTRBRY/OXFORD  CLEAR     63  55  77 CALM      30.19S
BRIDGEPORT     PTCLDY    65  59  81 SW6       30.17S
MERIDEN        CLEAR     65  59  81 CALM      30.17S
NEW HAVEN      PTCLDY    62  58  86 S6        30.18S
CHESTER        FAIR      64  61  88 SW7       30.20S
GROTON         CLEAR     61  58  90 SW6       30.19F
WILLIMANTIC    CLEAR     66  60  81 S6        30.18F

 IN RI

CITY           SKY/WX    TMP DP  RH WIND       PRES   REMARKS
PROVIDENCE     PTCLDY    63  59  87 S6        30.20S
BLOCK ISLAND   CLEAR     57  54  88 SW13      30.22S
WESTERLY       CLEAR     63  59  87 SW9       30.21F

 IN MA

CITY           SKY/WX    TMP DP  RH WIND       PRES   REMARKS
BOSTON         MOCLDY    68  59  73 SW14      30.15S
WORCESTER      MOCLDY    66  59  78 SW14      30.17F
WESTFIELD      CLEAR     66  59  78 S5        30.14F
PROVINCETOWN   MOCLDY    59  54  82 SW15G21   30.19S
NANTUCKET      MOCLDY    59  57  93 SW14      30.24F
$$

ANZ330-335-338-340-345-350-353-355-270700-
COASTAL MARINE OBSERVATIONS


STATION/POSITION TIME  SKY/WX   TEMP    WIND        PRES    VSBY  WAVE
                                AIR SEA DIR/SP/G                  HT/PER
                 (UTC)          (F)     (DEG/KT/KT) (MB)    (MI)  (FT/S)
NY HARB ENTRANCE 0550            61 56  200/ 17/ 19 1021.1          4/ 5
4S FIRE IS       0503               55                N/A           5/ 6
20S FIRE ISLAND  0550            60 56  210/ 12/ 14 1022.2          4/ 6
GREAT SOUTH BAY  0500            63 66  250/ 16/ 21   N/A
23SW MTP         0550            57 53  210/ 12/ 12 1022.9          4/ 5
HUDSON CANYON    NOT AVBL
KINGS POINT      0500            68 60  180/  9/ 12 1020.7
CENTRAL LI SOUND 0530            63 55  220/ 12/ 16   N/A
EASTERN LI SOUND 0500            59     240/  6/  8   N/A
ROBBINS REEF     0500            72     230/ 12/ 14 1020.2
$$


>>>>>>>>>>>>>>>>>>>>>>>>>>>> KEY <<<<<<<<<<<<<<<<<<<<<<<<<<<
>                                                          <
>     SKY/WX - SKY CONDITION/PRESENT WEATHER               <
>     TMP    - TEMPERATURE IN FAHRENHEIT                   <
>     DP     - DEWPOINT IN FAHRENHEIT                      <
>     RH     - RELATIVE HUMIDITY IN PERCENT                <
>     WIND   - DIRECTION AND SPEED IN MPH                  <
>     PRES   - MEAN SEA LEVEL PRESSURE IN INCHES OF HG     <
>     WCI    - WIND CHILL INDEX                            <
>     VSB    - VISIBILITY IN MILES                         <
>     HX     - HEAT INDEX                                  <
>     TC     - TEMPERATURE IN CELSIUS                      <
>     VRB    - VARIABLE WIND DIRECTION                     <
>                                                          <
>>>>>>>>>>>>>>>>>>>>>>>>>>>> KEY <<<<<<<<<<<<<<<<<<<<<<<<<<<





USA.gov is the U.S. government's official web portal to all federal, state and local government web resources and services.